QPF
0.01 0.00 0.01 0.00 0.01 0.01 0.01 0.01 0.01 0.01 0.00 0.01 0.00 0.00 0.00 0.00 0.00 0.00 0.00 0.01 0.01 0.01 0.02 0.01 0.00 0.00 0.00 0.01 0.01 0.01 0.02 0.02 0.02 0.02 0.03 0.05 0.05 0.05 0.04 0.04 0.04 0.04 0.03 0.03
0.01 0.01 0.01 0.00 0.00 0.02 0.02 0.01 0.01 0.01 0.00 0.00 0.00 0.00 0.00 0.00 0.00 0.00 0.00 0.01 0.01 0.01 0.02 0.01 0.01 0.02 0.01 0.01 0.01 0.01 0.02 0.02 0.02 0.02 0.03 0.04 0.03 0.04 0.04 0.05 0.04 0.03 0.03 0.03
0.01 0.01 0.00 0.00 0.00 0.01 0.00 0.01 0.01 0.01 0.01 0.01 0.01 0.01 0.00 0.00 0.00 0.00 0.00 0.00 0.01 0.02 0.01 0.01 0.02 0.03 0.02 0.01 0.01 0.01 0.01 0.02 0.03 0.03 0.03 0.03 0.04 0.05 0.05 0.05 0.05 0.04 0.04 0.03
0.00 0.00 0.00 0.00 0.00 0.00 0.00 0.00 0.00 0.00 0.01 0.01 0.01 0.01 0.01 0.00 0.00 0.00 0.00 0.00 0.01 0.01 0.01 0.02 0.02 0.02 0.02 0.01 0.01 0.01 0.01 0.02 0.03 0.03 0.03 0.03 0.04 0.04 0.05 0.05 0.06 0.06 0.04 0.03
0.01 0.00 0.00 0.00 0.00 0.00 0.00 0.00 0.00 0.01 0.01 0.01 0.01 0.01 0.01 0.01 0.01 0.01 0.00 0.00 0.01 0.01 0.01 0.02 0.02 0.02 0.02 0.02 0.01 0.01 0.01 0.03 0.07 0.05 0.03 0.03 0.03 0.03 0.04 0.05 0.07 0.06 0.05 0.03
0.00 0.00 0.00 0.00 0.00 0.00 0.00 0.00 0.01 0.01 0.01 0.01 0.01 0.00 0.00 0.00 0.00 0.00 0.00 0.00 0.01 0.01 0.01 0.01 0.01 0.01 0.02 0.03 0.02 0.01 0.01 0.04 0.07 0.06 0.02 0.02 0.02 0.03 0.04 0.05 0.07 0.06 0.06 0.05
0.00 0.00 0.00 0.00 0.00 0.00 0.00 0.01 0.01 0.01 0.01 0.01 0.00 0.00 0.00 0.01 0.00 0.00 0.00 0.01 0.02 0.01 0.01 0.01 0.01 0.01 0.02 0.02 0.01 0.00 0.02 0.03 0.04 0.03 0.01 0.01 0.02 0.03 0.04 0.04 0.04 0.06 0.09 0.10
0.00 0.00 0.00 0.00 0.00 0.00 0.00 0.00 0.01 0.01 0.01 0.01 0.00 0.00 0.00 0.00 0.00 0.00 0.00 0.01 0.01 0.01 0.01 0.01 0.01 0.01 0.01 0.01 0.00 0.00 0.01 0.01 0.01 0.02 0.02 0.01 0.02 0.03 0.03 0.03 0.02 0.02 0.04 0.07
0.00 0.00 0.00 0.00 0.00 0.00 0.00 0.00 0.00 0.01 0.01 0.01 0.00 0.00 0.00 0.00 0.00 0.00 0.01 0.01 0.01 0.01 0.00 0.00 0.00 0.00 0.00 0.01 0.00 0.01 0.01 0.01 0.02 0.03 0.03 0.02 0.04 0.04 0.03 0.02 0.01 0.01 0.02 0.02
0.00 0.00 0.00 0.00 0.00 0.00 0.00 0.00 0.01 0.01 0.01 0.01 0.00 0.01 0.01 0.01 0.01 0.01 0.01 0.01 0.01 0.01 0.00 0.00 0.00 0.00 0.00 0.01 0.01 0.01 0.01 0.01 0.03 0.03 0.02 0.01 0.01 0.01 0.01 0.01 0.01 0.01 0.01 0.01
0.00 0.00 0.00 0.00 0.00 0.00 0.00 0.00 0.00 0.00 0.00 0.01 0.01 0.01 0.01 0.01 0.01 0.01 0.01 0.00 0.00 0.00 0.00 0.00 0.01 0.01 0.01 0.02 0.01 0.01 0.01 0.01 0.02 0.02 0.01 0.00 0.01 0.01 0.02 0.01 0.01 0.01 0.01 0.01
0.00 0.00 0.00 0.00 0.00 0.00 0.00 0.00 0.00 0.00 0.00 0.00 0.01 0.01 0.00 0.00 0.00 0.00 0.00 0.00 0.00 0.00 0.01 0.01 0.01 0.01 0.01 0.01 0.01 0.01 0.01 0.01 0.02 0.01 0.01 0.01 0.01 0.01 0.01 0.01 0.02 0.01 0.01 0.01
0.00 0.00 0.00 0.00 0.00 0.00 0.00 0.00 0.00 0.00 0.00 0.00 0.01 0.01 0.00 0.00 0.00 0.00 0.00 0.00 0.00 0.00 0.01 0.01 0.01 0.02 0.02 0.01 0.01 0.00 0.01 0.01 0.02 0.01 0.01 0.01 0.01 0.01 0.01 0.02 0.02 0.01 0.01 0.01
0.00 0.00 0.00 0.00 0.00 0.00 0.00 0.00 0.00 0.00 0.00 0.00 0.00 0.00 0.00 0.00 0.00 0.00 0.00 0.00 0.00 0.01 0.01 0.01 0.01 0.01 0.01 0.01 0.01 0.01 0.01 0.01 0.01 0.01 0.01 0.02 0.01 0.01 0.01 0.01 0.01 0.01 0.02 0.01
0.00 0.00 0.00 0.00 0.00 0.00 0.00 0.00 0.00 0.00 0.00 0.00 0.00 0.00 0.00 0.00 0.00 0.00 0.00 0.01 0.01 0.01 0.01 0.01 0.01 0.01 0.01 0.01 0.01 0.01 0.01 0.01 0.01 0.01 0.02 0.02 0.02 0.01 0.01 0.01 0.01 0.01 0.02 0.01
0.00 0.00 0.00 0.00 0.00 0.00 0.00 0.00 0.00 0.00 0.00 0.00 0.00 0.00 0.00 0.00 0.00 0.00 0.00 0.00 0.01 0.02 0.01 0.01 0.01 0.01 0.01 0.01 0.01 0.01 0.01 0.01 0.01 0.01 0.02 0.02 0.02 0.02 0.01 0.01 0.01 0.01 0.01 0.01
0.00 0.00 0.00 0.00 0.00 0.00 0.00 0.00 0.00 0.00 0.00 0.00 0.00 0.00 0.00 0.00 0.00 0.00 0.00 0.00 0.01 0.02 0.02 0.01 0.01 0.02 0.02 0.01 0.02 0.02 0.02 0.02 0.02 0.02 0.02 0.03 0.03 0.02 0.02 0.02 0.02 0.02 0.01 0.01
0.00 0.00 0.00 0.00 0.00 0.00 0.00 0.00 0.00 0.00 0.00 0.00 0.00 0.00 0.00 0.00 0.00 0.00 0.00 0.00 0.01 0.02 0.02 0.02 0.02 0.02 0.02 0.01 0.01 0.02 0.02 0.03 0.03 0.04 0.04 0.04 0.03 0.02 0.02 0.02 0.02 0.02 0.02 0.01
0.00 0.00 0.00 0.00 0.00 0.00 0.00 0.00 0.00 0.00 0.00 0.00 0.00 0.00 0.00 0.00 0.00 0.00 0.00 0.00 0.01 0.01 0.02 0.02 0.02 0.02 0.01 0.01 0.02 0.02 0.03 0.03 0.03 0.04 0.04 0.03 0.02 0.01 0.01 0.01 0.01 0.02 0.02 0.02
0.00 0.00 0.00 0.00 0.00 0.00 0.00 0.00 0.00 0.00 0.00 0.00 0.00 0.00 0.00 0.00 0.00 0.00 0.00 0.01 0.01 0.01 0.01 0.02 0.01 0.01 0.01 0.01 0.02 0.03 0.03 0.03 0.03 0.03 0.01 0.01 0.01 0.01 0.01 0.01 0.01 0.02 0.01 0.01
0.00 0.00 0.00 0.00 0.00 0.00 0.00 0.00 0.00 0.00 0.00 0.00 0.00 0.00 0.00 0.00 0.00 0.00 0.01 0.02 0.02 0.02 0.01 0.01 0.01 0.01 0.01 0.02 0.02 0.03 0.04 0.04 0.03 0.02 0.01 0.01 0.01 0.01 0.01 0.01 0.01 0.01 0.01 0.01
0.00 0.00 0.00 0.00 0.00 0.00 0.00 0.00 0.00 0.00 0.00 0.00 0.00 0.00 0.00 0.01 0.01 0.01 0.01 0.02 0.02 0.01 0.01 0.01 0.01 0.02 0.02 0.02 0.02 0.03 0.03 0.03 0.02 0.01 0.01 0.01 0.01 0.01 0.01 0.01 0.01 0.02 0.02 0.02
0.00 0.00 0.00 0.00 0.00 0.00 0.00 0.00 0.00 0.00 0.01 0.01 0.01 0.00 0.00 0.01 0.01 0.01 0.01 0.01 0.01 0.01 0.01 0.01 0.02 0.03 0.03 0.03 0.03 0.03 0.02 0.01 0.01 0.01 0.01 0.01 0.01 0.01 0.01 0.01 0.01 0.01 0.02 0.02
0.00 0.00 0.01 0.00 0.00 0.00 0.00 0.00 0.00 0.00 0.00 0.01 0.00 0.00 0.01 0.01 0.01 0.01 0.01 0.01 0.01 0.01 0.01 0.02 0.03 0.04 0.03 0.02 0.02 0.03 0.02 0.01 0.01 0.01 0.01 0.02 0.01 0.01 0.01 0.01 0.01 0.01 0.02 0.01
0.01 0.01 0.01 0.00 0.00 0.00 0.00 0.00 0.00 0.01 0.00 0.00 0.01 0.01 0.01 0.01 0.01 0.00 0.00 0.01 0.01 0.02 0.03 0.03 0.03 0.03 0.03 0.02 0.02 0.02 0.01 0.01 0.01 0.01 0.01 0.02 0.01 0.01 0.01 0.01 0.01 0.02 0.02 0.02
0.02 0.02 0.01 0.01 0.01 0.00 0.01 0.01 0.00 0.00 0.01 0.01 0.02 0.01 0.01 0.01 0.00 0.00 0.01 0.01 0.02 0.02 0.02 0.02 0.02 0.01 0.01 0.01 0.01 0.01 0.01 0.01 0.01 0.01 0.01 0.01 0.01 0.01 0.01 0.01 0.01 0.02 0.02 0.02
MSLP
1012.95 1013.58 1014.14 1014.64 1015.09 1015.52 1015.95 1016.40 1016.86 1017.32 1017.73 1018.08 1018.30 1018.40 1018.37 1018.21 1017.96 1017.68 1017.39 1017.13 1016.94 1016.80 1016.70 1016.63 1016.55 1016.42 1016.22 1015.95 1015.59 1015.15 1014.66 1014.13 1013.58 1013.04 1012.52 1012.03 1011.57 1011.14 1010.72 1010.32 1009.93 1009.56 1009.19 1008.84
1013.61 1014.23 1014.77 1015.23 1015.63 1016.00 1016.37 1016.77 1017.18 1017.61 1018.01 1018.35 1018.59 1018.71 1018.69 1018.54 1018.31 1018.02 1017.72 1017.45 1017.23 1017.07 1016.96 1016.87 1016.79 1016.69 1016.54 1016.32 1016.04 1015.69 1015.28 1014.83 1014.35 1013.87 1013.38 1012.89 1012.42 1011.96 1011.52 1011.09 1010.68 1010.28 1009.90 1009.54
1014.17 1014.79 1015.31 1015.74 1016.10 1016.43 1016.76 1017.10 1017.46 1017.84 1018.20 1018.51 1018.72 1018.83 1018.82 1018.68 1018.47 1018.20 1017.93 1017.67 1017.46 1017.29 1017.17 1017.08 1017.00 1016.90 1016.77 1016.60 1016.37 1016.09 1015.76 1015.40 1015.00 1014.58 1014.14 1013.69 1013.23 1012.78 1012.32 1011.89 1011.47 1011.08 1010.71 1010.36
1014.58 1015.19 1015.70 1016.12 1016.48 1016.78 1017.08 1017.39 1017.71 1018.04 1018.34 1018.59 1018.76 1018.83 1018.80 1018.68 1018.49 1018.27 1018.03 1017.82 1017.64 1017.50 1017.39 1017.30 1017.20 1017.10 1016.96 1016.80 1016.60 1016.37 1016.10 1015.80 1015.49 1015.14 1014.76 1014.37 1013.95 1013.52 1013.09 1012.67 1012.28 1011.90 1011.56 1011.25
1014.84 1015.44 1015.94 1016.37 1016.73 1017.04 1017.35 1017.64 1017.93 1018.21 1018.45 1018.64 1018.75 1018.77 1018.72 1018.60 1018.44 1018.27 1018.10 1017.95 1017.82 1017.73 1017.64 1017.55 1017.44 1017.31 1017.16 1016.97 1016.76 1016.54 1016.31 1016.07 1015.82 1015.54 1015.23 1014.90 1014.54 1014.15 1013.76 1013.37 1013.01 1012.67 1012.37 1012.09
1014.96 1015.52 1016.03 1016.47 1016.86 1017.21 1017.54 1017.84 1018.12 1018.37 1018.56 1018.69 1018.74 1018.72 1018.64 1018.52 1018.39 1018.26 1018.16 1018.09 1018.04 1018.00 1017.94 1017.86 1017.74 1017.57 1017.37 1017.14 1016.91 1016.67 1016.45 1016.24 1016.02 1015.80 1015.56 1015.28 1014.97 1014.63 1014.28 1013.93 1013.60 1013.30 1013.03 1012.79
1014.97 1015.50 1015.99 1016.44 1016.87 1017.26 1017.64 1017.98 1018.27 1018.50 1018.66 1018.74 1018.74 1018.68 1018.58 1018.47 1018.36 1018.30 1018.27 1018.28 1018.30 1018.31 1018.29 1018.22 1018.08 1017.88 1017.63 1017.35 1017.07 1016.81 1016.57 1016.36 1016.17 1015.98 1015.78 1015.55 1015.28 1014.98 1014.65 1014.32 1014.01 1013.73 1013.48 1013.27
1014.92 1015.39 1015.86 1016.32 1016.78 1017.22 1017.64 1018.02 1018.34 1018.58 1018.73 1018.78 1018.76 1018.67 1018.56 1018.46 1018.39 1018.38 1018.42 1018.50 1018.59 1018.66 1018.68 1018.61 1018.46 1018.23 1017.94 1017.61 1017.29 1016.99 1016.73 1016.51 1016.33 1016.16 1015.98 1015.76 1015.52 1015.23 1014.91 1014.59 1014.28 1013.99 1013.75 1013.54
1014.83 1015.25 1015.69 1016.15 1016.62 1017.10 1017.56 1017.97 1018.32 1018.57 1018.72 1018.77 1018.73 1018.64 1018.54 1018.46 1018.44 1018.48 1018.58 1018.72 1018.88 1019.00 1019.04 1019.00 1018.84 1018.60 1018.28 1017.92 1017.56 1017.24 1016.96 1016.74 1016.55 1016.38 1016.20 1016.00 1015.75 1015.46 1015.13 1014.79 1014.46 1014.16 1013.90 1013.68
1014.74 1015.10 1015.51 1015.95 1016.42 1016.90 1017.38 1017.81 1018.17 1018.44 1018.60 1018.65 1018.63 1018.56 1018.48 1018.44 1018.46 1018.56 1018.72 1018.92 1019.11 1019.28 1019.35 1019.32 1019.17 1018.92 1018.60 1018.24 1017.88 1017.55 1017.27 1017.04 1016.86 1016.69 1016.51 1016.30 1016.04 1015.73 1015.38 1015.02 1014.66 1014.33 1014.05 1013.81
1014.64 1014.98 1015.35 1015.76 1016.20 1016.67 1017.13 1017.55 1017.90 1018.16 1018.33 1018.40 1018.40 1018.37 1018.34 1018.35 1018.42 1018.57 1018.78 1019.02 1019.26 1019.44 1019.54 1019.53 1019.40 1019.17 1018.86 1018.52 1018.18 1017.88 1017.62 1017.41 1017.24 1017.07 1016.89 1016.67 1016.40 1016.08 1015.71 1015.32 1014.95 1014.61 1014.31 1014.06
1014.58 1014.89 1015.24 1015.62 1016.02 1016.44 1016.84 1017.22 1017.53 1017.77 1017.93 1018.01 1018.04 1018.06 1018.08 1018.15 1018.28 1018.49 1018.74 1019.02 1019.28 1019.48 1019.60 1019.60 1019.50 1019.30 1019.02 1018.72 1018.42 1018.16 1017.94 1017.76 1017.61 1017.46 1017.29 1017.07 1016.80 1016.47 1016.10 1015.72 1015.35 1015.01 1014.72 1014.48
1014.56 1014.88 1015.20 1015.54 1015.89 1016.23 1016.56 1016.86 1017.10 1017.29 1017.43 1017.51 1017.57 1017.63 1017.72 1017.86 1018.05 1018.31 1018.60 1018.91 1019.19 1019.40 1019.52 1019.54 1019.46 1019.28 1019.06 1018.81 1018.56 1018.36 1018.18 1018.04 1017.92 1017.79 1017.63 1017.42 1017.16 1016.84 1016.49 1016.13 1015.79 1015.49 1015.23 1015.02
1014.60 1014.94 1015.26 1015.56 1015.84 1016.10 1016.32 1016.51 1016.66 1016.78 1016.88 1016.95 1017.03 1017.14 1017.28 1017.48 1017.75 1018.06 1018.39 1018.72 1019.00 1019.22 1019.34 1019.37 1019.30 1019.16 1018.97 1018.77 1018.58 1018.42 1018.29 1018.19 1018.10 1017.98 1017.84 1017.64 1017.40 1017.10 1016.79 1016.48 1016.19 1015.94 1015.74 1015.57
1014.72 1015.09 1015.40 1015.67 1015.88 1016.04 1016.14 1016.22 1016.27 1016.30 1016.34 1016.40 1016.48 1016.63 1016.83 1017.10 1017.42 1017.78 1018.15 1018.49 1018.78 1019.00 1019.11 1019.14 1019.07 1018.95 1018.80 1018.63 1018.48 1018.36 1018.26 1018.19 1018.11 1018.00 1017.87 1017.68 1017.46 1017.20 1016.92 1016.66 1016.42 1016.24 1016.09 1015.99
1014.91 1015.31 1015.63 1015.85 1015.98 1016.04 1016.04 1016.00 1015.94 1015.89 1015.87 1015.90 1016.00 1016.18 1016.43 1016.75 1017.13 1017.53 1017.92 1018.28 1018.57 1018.77 1018.88 1018.89 1018.83 1018.72 1018.57 1018.43 1018.30 1018.20 1018.12 1018.04 1017.96 1017.86 1017.72 1017.53 1017.31 1017.07 1016.82 1016.60 1016.42 1016.28 1016.18 1016.12
1015.16 1015.57 1015.87 1016.05 1016.12 1016.09 1015.99 1015.85 1015.70 1015.57 1015.50 1015.51 1015.62 1015.82 1016.11 1016.48 1016.90 1017.34 1017.75 1018.12 1018.40 1018.58 1018.68 1018.68 1018.61 1018.49 1018.35 1018.21 1018.09 1017.99 1017.90 1017.82 1017.72 1017.59 1017.43 1017.22 1017.00 1016.75 1016.52 1016.30 1016.14 1016.03 1015.96 1015.92
1015.39 1015.79 1016.06 1016.20 1016.21 1016.12 1015.94 1015.73 1015.52 1015.34 1015.25 1015.25 1015.36 1015.59 1015.92 1016.32 1016.77 1017.23 1017.65 1018.01 1018.28 1018.45 1018.52 1018.51 1018.42 1018.30 1018.15 1018.01 1017.88 1017.77 1017.66 1017.55 1017.42 1017.26 1017.06 1016.83 1016.57 1016.30 1016.04 1015.82 1015.64 1015.52 1015.44 1015.39
1015.54 1015.90 1016.13 1016.23 1016.20 1016.06 1015.85 1015.60 1015.36 1015.18 1015.09 1015.10 1015.24 1015.49 1015.84 1016.27 1016.73 1017.18 1017.60 1017.95 1018.20 1018.35 1018.40 1018.36 1018.26 1018.12 1017.97 1017.82 1017.68 1017.55 1017.42 1017.28 1017.12 1016.93 1016.69 1016.42 1016.12 1015.81 1015.51 1015.24 1015.02 1014.85 1014.73 1014.64
1015.51 1015.82 1016.01 1016.07 1016.02 1015.87 1015.66 1015.42 1015.21 1015.06 1015.00 1015.04 1015.20 1015.48 1015.85 1016.28 1016.74 1017.18 1017.58 1017.90 1018.12 1018.24 1018.27 1018.21 1018.09 1017.94 1017.78 1017.62 1017.46 1017.32 1017.18 1017.02 1016.84 1016.61 1016.34 1016.03 1015.69 1015.34 1014.99 1014.66 1014.38 1014.14 1013.96 1013.81
1015.27 1015.52 1015.67 1015.72 1015.67 1015.54 1015.38 1015.20 1015.04 1014.95 1014.94 1015.04 1015.24 1015.54 1015.91 1016.34 1016.78 1017.19 1017.55 1017.83 1018.01 1018.10 1018.09 1018.00 1017.87 1017.70 1017.53 1017.36 1017.20 1017.04 1016.89 1016.72 1016.53 1016.29 1016.00 1015.67 1015.30 1014.91 1014.52 1014.14 1013.79 1013.49 1013.23 1013.03
1014.83 1015.03 1015.15 1015.19 1015.18 1015.10 1015.01 1014.92 1014.86 1014.85 1014.92 1015.08 1015.31 1015.63 1016.00 1016.40 1016.80 1017.17 1017.48 1017.71 1017.84 1017.88 1017.84 1017.72 1017.56 1017.38 1017.18 1017.00 1016.83 1016.67 1016.52 1016.35 1016.15 1015.91 1015.63 1015.30 1014.92 1014.51 1014.08 1013.67 1013.28 1012.92 1012.62 1012.37
1014.23 1014.39 1014.51 1014.58 1014.61 1014.62 1014.63 1014.64 1014.69 1014.78 1014.93 1015.14 1015.41 1015.73 1016.09 1016.46 1016.81 1017.12 1017.37 1017.54 1017.62 1017.61 1017.52 1017.36 1017.17 1016.96 1016.74 1016.53 1016.34 1016.17 1016.01 1015.84 1015.65 1015.43 1015.16 1014.84 1014.48 1014.08 1013.65 1013.23 1012.82 1012.44 1012.11 1011.84
1013.59 1013.73 1013.86 1013.98 1014.08 1014.18 1014.30 1014.42 1014.58 1014.76 1014.98 1015.24 1015.53 1015.84 1016.17 1016.49 1016.79 1017.04 1017.22 1017.32 1017.35 1017.29 1017.15 1016.95 1016.71 1016.46 1016.20 1015.95 1015.73 1015.53 1015.35 1015.18 1015.00 1014.79 1014.55 1014.26 1013.94 1013.57 1013.17 1012.76 1012.37 1012.00 1011.67 1011.40
1013.02 1013.17 1013.32 1013.49 1013.67 1013.87 1014.08 1014.31 1014.55 1014.81 1015.08 1015.36 1015.66 1015.95 1016.24 1016.51 1016.74 1016.93 1017.05 1017.10 1017.06 1016.95 1016.76 1016.51 1016.22 1015.91 1015.59 1015.30 1015.02 1014.78 1014.57 1014.38 1014.20 1014.00 1013.79 1013.55 1013.27 1012.95 1012.60 1012.24 1011.88 1011.54 1011.24 1011.00
1012.63 1012.80 1012.99 1013.22 1013.46 1013.74 1014.03 1014.33 1014.64 1014.94 1015.23 1015.52 1015.79 1016.05 1016.29 1016.50 1016.68 1016.81 1016.88 1016.87 1016.79 1016.63 1016.40 1016.09 1015.74 1015.36 1014.98 1014.61 1014.28 1013.97 1013.72 1013.50 1013.31 1013.12 1012.94 1012.74 1012.51 1012.24 1011.96 1011.65 1011.34 1011.05 1010.80 1010.58
Thickness
5831 5823 5817 5821 5825 5822 5818 5813 5810 5816 5827 5821 5816 5816 5821 5824 5821 5817 5815 5813 5810 5809 5811 5810 5807 5804 5800 5796 5792 5789 5787 5785 5783 5782 5781 5778 5778 5778 5777 5776 5774 5773 5772 5772
5819 5817 5827 5830 5827 5822 5817 5810 5810 5817 5825 5820 5816 5817 5825 5826 5822 5821 5818 5814 5813 5812 5810 5808 5805 5803 5800 5796 5792 5789 5786 5785 5783 5781 5780 5778 5777 5777 5776 5775 5772 5772 5771 5770
5813 5823 5831 5824 5821 5816 5816 5813 5812 5811 5819 5823 5816 5813 5820 5825 5826 5825 5823 5821 5819 5815 5811 5808 5805 5802 5800 5796 5793 5791 5787 5784 5782 5780 5780 5778 5776 5775 5774 5772 5771 5770 5769 5769
5819 5829 5825 5821 5818 5818 5810 5822 5818 5813 5809 5811 5813 5800 5816 5822 5821 5821 5822 5822 5821 5819 5816 5812 5808 5803 5800 5798 5795 5791 5787 5783 5781 5779 5778 5775 5772 5770 5769 5769 5769 5768 5767 5767
5817 5825 5820 5816 5820 5822 5818 5825 5820 5816 5812 5809 5814 5805 5816 5822 5814 5818 5822 5823 5823 5822 5819 5813 5809 5805 5803 5800 5795 5791 5786 5783 5781 5778 5775 5772 5771 5770 5769 5768 5765 5765 5765 5764
5825 5834 5830 5826 5830 5828 5825 5821 5818 5817 5815 5796 5808 5803 5806 5819 5815 5818 5822 5823 5822 5822 5819 5815 5812 5808 5803 5800 5795 5792 5786 5781 5780 5777 5774 5770 5767 5765 5764 5762 5761 5763 5763 5761
5813 5823 5831 5833 5820 5822 5821 5809 5796 5792 5794 5797 5812 5805 5807 5822 5827 5824 5822 5822 5822 5821 5817 5813 5809 5805 5801 5798 5795 5792 5786 5780 5778 5775 5772 5769 5767 5765 5761 5761 5760 5759 5760 5758
5802 5804 5822 5827 5822 5816 5818 5813 5791 5779 5784 5800 5807 5802 5814 5828 5830 5829 5827 5825 5821 5819 5817 5813 5809 5805 5802 5799 5795 5790 5785 5780 5777 5774 5771 5769 5767 5766 5764 5760 5759 5758 5757 5756
5808 5805 5824 5828 5830 5825 5814 5813 5821 5805 5800 5794 5803 5808 5816 5825 5823 5823 5822 5820 5817 5816 5815 5812 5809 5807 5803 5799 5795 5791 5784 5779 5776 5774 5770 5767 5764 5762 5760 5757 5756 5756 5753 5753
5819 5802 5816 5824 5826 5824 5824 5820 5811 5801 5781 5780 5795 5800 5803 5807 5810 5814 5815 5815 5815 5815 5813 5810 5808 5806 5803 5800 5796 5791 5785 5779 5776 5773 5770 5767 5762 5759 5757 5755 5752 5751 5749 5747
5821 5803 5806 5813 5809 5810 5810 5809 5805 5805 5801 5783 5780 5795 5817 5812 5813 5812 5813 5814 5813 5812 5811 5808 5806 5804 5802 5798 5795 5789 5784 5779 5775 5771 5766 5763 5760 5757 5755 5752 5750 5748 5745 5743
5815 5809 5799 5807 5821 5824 5818 5814 5808 5792 5788 5793 5789 5795 5821 5819 5819 5815 5812 5811 5810 5809 5809 5807 5804 5800 5797 5794 5792 5787 5782 5777 5773 5769 5764 5760 5757 5754 5752 5750 5747 5745 5742 5740
5808 5799 5783 5789 5801 5809 5808 5810 5812 5811 5803 5794 5786 5794 5817 5817 5815 5813 5809 5806 5805 5804 5803 5801 5798 5795 5791 5790 5787 5784 5780 5776 5772 5767 5762 5758 5754 5751 5748 5746 5744 5742 5739 5736
5805 5798 5789 5782 5794 5804 5798 5801 5804 5803 5794 5793 5794 5796 5806 5806 5805 5806 5805 5802 5801 5798 5796 5794 5791 5788 5786 5784 5781 5779 5776 5773 5770 5765 5759 5754 5751 5748 5746 5743 5741 5738 5735 5732
5800 5788 5791 5796 5801 5800 5797 5797 5799 5796 5798 5792 5795 5797 5800 5803 5802 5801 5800 5797 5794 5791 5789 5787 5785 5782 5780 5778 5775 5773 5770 5768 5764 5760 5755 5751 5749 5746 5742 5739 5736 5733 5730 5729
5790 5781 5782 5782 5792 5792 5789 5794 5796 5795 5797 5796 5795 5793 5803 5803 5800 5795 5792 5789 5786 5784 5782 5781 5780 5777 5773 5771 5769 5767 5764 5762 5758 5754 5750 5748 5745 5741 5738 5735 5732 5728 5724 5722
5780 5774 5769 5771 5782 5779 5774 5789 5792 5792 5795 5794 5787 5791 5794 5790 5787 5786 5785 5783 5779 5778 5776 5775 5775 5772 5769 5767 5764 5761 5759 5756 5752 5748 5744 5741 5738 5735 5732 5730 5726 5722 5719 5716
5767 5764 5765 5766 5761 5747 5780 5799 5797 5790 5789 5792 5788 5788 5787 5785 5786 5786 5783 5777 5774 5772 5770 5769 5769 5768 5766 5764 5760 5756 5753 5749 5745 5741 5737 5733 5732 5729 5726 5723 5719 5716 5713 5710
5768 5759 5758 5758 5753 5759 5775 5786 5786 5779 5775 5785 5782 5780 5781 5784 5781 5778 5778 5775 5771 5769 5767 5765 5764 5763 5759 5756 5752 5748 5744 5741 5737 5733 5729 5727 5724 5721 5718 5715 5712 5710 5707 5704
5760 5757 5753 5750 5743 5744 5766 5781 5787 5776 5761 5778 5776 5772 5773 5772 5764 5764 5770 5768 5765 5763 5761 5759 5757 5754 5750 5747 5744 5739 5735 5732 5728 5725 5722 5719 5717 5713 5710 5708 5706 5704 5700 5698
5743 5742 5743 5743 5740 5753 5769 5776 5774 5749 5753 5768 5769 5767 5765 5762 5761 5762 5762 5759 5756 5754 5752 5750 5747 5743 5739 5737 5734 5729 5726 5723 5721 5719 5715 5712 5709 5707 5704 5701 5699 5697 5694 5691
5739 5739 5735 5738 5732 5740 5761 5763 5754 5751 5759 5761 5760 5760 5757 5756 5755 5754 5751 5748 5746 5743 5742 5740 5736 5732 5730 5728 5725 5720 5717 5715 5713 5710 5706 5703 5702 5701 5699 5694 5691 5689 5685 5683
5737 5739 5743 5740 5740 5746 5752 5751 5750 5752 5749 5750 5752 5752 5750 5748 5745 5743 5741 5738 5736 5734 5732 5730 5727 5723 5721 5719 5716 5712 5709 5707 5704 5701 5698 5696 5693 5691 5690 5687 5684 5682 5678 5676
5728 5729 5730 5729 5735 5739 5741 5741 5742 5743 5742 5744 5745 5745 5743 5740 5738 5735 5732 5730 5727 5725 5723 5721 5718 5715 5712 5710 5708 5705 5702 5699 5696 5693 5691 5688 5686 5685 5682 5679 5678 5674 5670 5667
5718 5719 5720 5719 5724 5728 5731 5732 5733 5735 5737 5737 5738 5738 5736 5733 5730 5727 5724 5722 5719 5717 5715 5712 5710 5707 5705 5703 5700 5698 5695 5692 5689 5687 5684 5682 5680 5677 5673 5671 5667 5664 5659 5655
5713 5713 5712 5713 5717 5718 5720 5723 5725 5724 5725 5726 5726 5727 5728 5726 5722 5720 5717 5715 5712 5710 5707 5704 5702 5700 5698 5696 5693 5691 5688 5686 5682 5679 5677 5676 5673 5670 5668 5665 5661 5654 5650 5645